Regional Weather Roundup
Issued by NWS Wakefield, VA

Home | Current Version | Previous Version | Text Only | Print | Product List | Glossary Off
Versions: 1 2 3 4 5 6 7 8 9 10 11 12 13 14 15 16 17 18 19 20 21 22 23 24 25 26 27

000
ASUS41 KAKQ 200710
RWRAKQ

REGIONAL WEATHER ROUNDUP
NATIONAL WEATHER SERVICE WAKEFIELD VA
300 AM EDT SUN APR 20 2014

Note: "fair" indicates few or no clouds below 12,000 feet with no
significant weather and/or obstructions to visibility. * = Denotes
station may not report precipitation (e.g., rain,snow,etc.),
thunder or fog.

VAZ042-051-052>054-056-200800-
NORTHERN VIRGINIA

CITY           SKY/WX    TMP DP  RH WIND       PRES   REMARKS
WASH NATIONAL  CLOUDY    53  40  61 NE6       30.32F
DULLES         CLOUDY    47  31  53 N5        30.32S
FORT BELVOIR   CLOUDY    46  37  71 CALM      30.32S
QUANTICO       CLOUDY    48  41  76 NW6       30.32S
FREDERICKSBRG* CLOUDY    46  43  87 N3        30.30R
STAFFORD*      CLOUDY    42  42 100 CALM      30.35R
WARRENTON      CLOUDY    42  38  85 CALM      30.30F
CULPEPER*      CLOUDY    45  34  65 CALM      30.32S
MANASSAS*      CLOUDY    45  37  76 CALM      30.31F
LEESBURG*      CLOUDY    50  32  50 NE5       30.33S
WINCHESTER     CLOUDY    46  28  49 CALM      30.32S
$$

VAZ048-049-060>072-079>083-200800-
CENTRAL AND SOUTH CENTRAL VIRGINIA...AND NORTH CENTRAL NORTH CAROLINA

CITY           SKY/WX    TMP DP  RH WIND       PRES   REMARKS
RICHMOND       CLOUDY    50  32  50 N6        30.26F
CHESTERFIELD*  NOT AVBL
HANOVER        CLOUDY    46  37  71 CALM      30.29F
TAPPAHANNOCK*  CLOUDY    47  34  61 CALM      30.28S
CHARLOTTSVILLE CLOUDY    51  30  44 NE6       30.30R
ORANGE*        CLOUDY    46  34  61 CALM      30.32S
LOUISA*        CLOUDY    43  39  87 CALM      30.28S
FARMVILLE*     CLOUDY    48  39  71 N5        30.26S
SOUTH HILL*    CLOUDY    52  41  66 N8        30.28F
ROANOKE RAPIDS CLOUDY    52  41  66 NE8       30.20F
RALEIGH        CLOUDY    51  39  63 NE8       30.18F
$$

VAZ088>098-200800-
SOUTHEAST VIRGINIA

CITY           SKY/WX    TMP DP  RH WIND       PRES   REMARKS
NORFOLK        CLOUDY    51  40  65 NE14      30.21F
VIRGINIA BEACH CLOUDY    52  35  52 NE17G28   30.20F
NORFOLK NAVAL  CLOUDY    52  38  58 NE16      30.22F
WEST POINT*    CLOUDY    51  35  54 N3        30.27F
NEWPORT NEWS   CLOUDY    54  38  54 NE9       30.23F
LANGLEY AFB    CLOUDY    50  41  70 NE12      30.23F
FORT EUSTIS    CLOUDY    51  39  63 NE7       30.22F
WILLIAMSBURG*  CLOUDY    50  39  66 NE3       30.25F
FRANKLIN*      CLOUDY    50  43  76 N3        30.21F
WAKEFIELD      CLOUDY    48  38  68 NE5       30.23F
$$

VAZ020-022-025-037-045-200800-
WESTERN AND SOUTHWEST VIRGINIA

CITY           SKY/WX    TMP DP  RH WIND       PRES   REMARKS
STAUNTON*      CLOUDY    43  34  72 CALM      30.31S
HOT SPRINGS VA CLOUDY    43  32  65 E9        30.31F
LYNCHBURG      CLOUDY    54  41  61 N7        30.28F
DANVILLE       CLOUDY    50  44  80 NE7       30.24F
MARTINSVILLE   CLOUDY    47  42  85 N3        30.26F
ROANOKE        CLOUDY    51  40  65 NE7       30.28F
BLACKSBURG     MOCLDY    50  43  76 E8        30.28F
DUBLIN*        CLOUDY    45  39  81 CALM      30.27S
MARION*        MOCLDY    44  37  79 CALM      30.27F
HILLSVILLE*    MOCLDY    46  36  66 NE5       30.27F
RICHLANDS*     PTSUNNY   54  39  55 E7        30.23F
WISE*          PTCLDY    52  32  46 CALM      30.23S
ABINGDON*      MOCLDY    52  37  55 E8        30.23S
$$

MDZ021>025-VAZ099-100-200800-
SOUTHERN MARYLAND AND THE DELMARVA PENINSULA

CITY           SKY/WX    TMP DP  RH WIND       PRES   REMARKS
PATUXENT RIVER CLOUDY    50  37  61 NE8       30.28F
BAY BRIDGE APT CLOUDY    50  37  62 CALM      30.32S
LEONARDTOWN    CLOUDY    45  36  70 CALM      30.30S
DOVER          CLOUDY    43  43 100 N8        30.28S
GEORGETOWN     CLOUDY    46  39  76 N6        30.30F
EASTON         CLOUDY    46  40  79 CALM      30.34F
CAMBRIDGE      CLOUDY    52  37  58 N6        30.29F
SALISBURY      CLOUDY    47  38  71 NE3       30.29F
OCEAN CITY     CLOUDY    47  41  80 N6        30.29F
WALLOPS ISLAND CLOUDY    51  37  58 NE8       30.27F
ACCOMACK*      CLOUDY    48  32  53 NE7       30.26S
$$

NCZ012>017-030>032-200800-
EASTERN NORTH CAROLINA

CITY           SKY/WX    TMP DP  RH WIND       PRES   REMARKS
ELIZABETH CITY CLOUDY    53  43  68 NE16      30.16F
AHOSKIE*       CLOUDY    50  40  68 N9        30.20S
EDENTON*       LGT RAIN  50  45  83 NE8       30.16S
CURRITUCK*     CLOUDY    55  36  48 NE13G21   30.17F
KILL DEVIL HLS DRIZZLE   49  47  92 NE13G21   30.12F
MANTEO         LGT RAIN  51  48  89 NE16G25   30.13F
CAPE HATTERAS  CLOUDY    53  53 100 NE14G28   30.07F FOG
GOLDSBORO      LGT RAIN  49  46  86 NE9       30.14S
WASHINGTON     CLOUDY    48  44  85 NE6       30.15F
GREENVILLE     LGT RAIN  46  45  93 N3        30.17F
NEW BERN       LGT RAIN  54  51  90 NE17G23   30.10F
WILMINGTON     CLOUDY    54  50  86 N17G24    30.04F
$$

VAZ048-200800-
ELSEWHERE

CITY           SKY/WX    TMP DP  RH WIND       PRES   REMARKS
HARRISBURG PA  MOCLDY    44  30  57 CALM      30.35F
BALTIMORE      CLOUDY    48  37  65 E6        30.32R
ANNAPOLIS      CLOUDY    50  45  83 CALM      30.32S
ANDREWS AFB    CLOUDY    47  37  68 NE9       30.31F
WILMINGTON DE  CLOUDY    48  37  65 N8        30.35R
PHILADELPHIA   MOCLDY    51  30  44 NE10      30.36S
WILDWOOD NJ*   CLOUDY    45  36  70 N6        30.33R
ATLANTIC CITY  CLOUDY    44  35  70 N8        30.33R
HENDERSON NC   CLOUDY    50  38  62 N7        30.22F
GREENSBORO     CLOUDY    52  42  69 NE8       30.20F
ROCKY MOUNT    CLOUDY    51  42  71 N7        30.18F
FAYETTEVILLE   CLOUDY    51  44  77 NE12      30.13F
CHARLOTTE      LGT RAIN  52  45  77 NE8       30.18F
$$

VAZ100-200800-
MARINE

STATION/POSITION TIME  TEMP    WIND        PRES    WAVE   SWELL
                       AIR SEA DIR/SP/G            HT/PER HT/PER
                 (UTC) (F)     (DEG/KT/KT) (MB)    (FT/S) (FT/S)
44066 TX TWR #4  0700   46 44   50/ 12/ 12 1027.2R   4/10   3/10
CAPE MAY NJ      0700   48 54   40/  3/  6 1026.3R
LEWES DE         0700   50 49   20/ 13/ 14 1025.5F
15NM E FENWICK I 0700   47 46              1025.7F   3/10
OCEAN-CITY-INLET 0700   50 48   30/  4/  7 1025.2F
WACHAPREAGUE VA  0700   51 52   30/  9/ 12 1024.3R
THOMAS POINT MD  0700   53 53   10/ 10/ 10 1026.8F
GOOSES REEF MD   0700   52      40/  8/ 10 1027.2F
COVE POINT MD    0700   52      30/ 10/ 12 1025.4F
SOLOMONS ISLAND  0700      52                N/A
BISHOPS HEAD MD  0700   51 54   40/  9/ 12 1025.0S
PINEY POINT MD   0700           40/  4/  5   N/A
POTOMAC MD       0700   52      50/ 10/ 12 1024.4F
CAMBRIDGE MD     0700   51 56   10/  8/  8 1025.3F
LEWISETTA VA     0700   51 54   20/  5/  6 1025.1R
RAPPAHANNOCK LGT 0700           40/ 14/ 15 1024.6F
STINGRAY PT      0700   52      70/ 10/ 12 1024.5F
YORK RVR RNG VA  0700   52      50/ 12/ 14 1023.1S
YORKTOWN VA      0700   53 54   50/ 11/ 12 1023.7R
JAMESTOWN VA     0700   52      40/  2/  4   N/A
DOMINION TERM VA 0700   52      30/  7/ 11 1023.3F
KIPTOPEKE VA     0700      52   50/  8/ 15   N/A
CHES BAY BRIDGE  0700   51 51   30/ 18/ 20 1022.7F
CAPE HENRY VA    0700   50      40/ 18/ 20   N/A
CHESAPEAKE LGHT  0600   49      40/ 20/ 22 1023.5F
WILLOUBY STN VA  0700   53      40/ 16/ 19 1022.3F
S CRANEY ISL VA  0700           10/ 13/ 16 1023.0F
CAPE HENRY BUOY  0700      47                N/A     4/ 9   2/11
1ST LANDING BUOY 0700      46                N/A     4/ 8   3/ 8
64NM E OF VA BCH 0700   52 48   20/ 19/ 23 1020.7F   9/ 8   7/ 8
DUCK PIER NC     0700   51 49   30/ 22/ 25 1019.7F
44100 DUCK FRF   0700      48                N/A     7/ 8   2/11
44056 DUCK FRF   0700      47                N/A     6/ 8   2/11
OREGON INLET NC  0700   50 51   10/ 15/ 21 1019.6F
HATTERAS NC      0700   55 56   20/ 11/ 22 1018.1F
DIAMOND SHLS NC  0700   63 75   20/ 27/ 35 1015.7   14/11  10/11
CAPE LOOKOUT NC  0600   56      10/ 22/ 27 1017.4F
FRYING PAN SHLS  0700   61 68   50/ 35/ 43 1012.3F  11/ 8   3/10
$$



USA.gov is the U.S. government's official web portal to all federal, state and local government web resources and services.